Date String (YYYY-MM-DD hh:mm:ss) UTC,Instrument flags,absolute air pressure of the measurement (hPa),sample flow rate (lpm),inlet stack bypass flow (lpm),air temperature of the measurement (°C),ambient temperature measured by the external sensor (°C),aerosol sample conditioner tube jacket temperature (°C),OPC LED temperature (°C),internal box temperature (°C),relative humidity of the measurement (%),span deviation,mass concentration of particles derived from Lorenz-Mie calculation of OPC scattering (μg/m³),mass concentration of particles derived from Lorenz-Mie calculation of OPC scattering (μg/m³),mass concentration of particles derived from Lorenz-Mie calculation of OPC scattering (μg/m³)
DateTimeUTC,F1_M11,P_M11,Q1_M11,Q2_M11,T1_M11,T2_M11,T3_M11,T4_M11,T5_M11,U1_M11,ZSPAN_M11,X2_M11,X0_M11,X1_M11
2023-10-28 06:00:00,SystemResetWarning,0831.1,5.00,000.00,022.8,021.3,000.0,031.1,024.4,12.8,0002.0,0006.53,0013.93,0005.81
2023-10-28 06:01:00,SystemResetWarning,0831.1,5.00,000.00,022.8,021.3,000.0,031.1,024.4,12.8,0001.9,0006.51,0014.44,0005.84
2023-10-28 06:02:00,SystemResetWarning,0831.1,5.00,000.00,022.8,021.3,000.0,031.1,024.4,12.7,0001.8,0006.54,0014.41,0005.85
2023-10-28 06:03:00,SystemResetWarning,0831.1,5.00,000.00,022.8,021.3,000.0,031.1,024.4,12.7,0001.9,0006.52,0014.28,0005.87
2023-10-28 06:04:00,SystemResetWarning,0831.1,5.00,000.00,022.8,021.4,000.0,031.1,024.3,12.7,0002.0,0006.53,0014.55,0005.87
2023-10-28 06:05:00,SystemResetWarning,0831.1,5.00,000.00,022.8,021.4,000.0,031.1,024.3,12.7,0001.9,0006.55,0013.74,0005.88
2023-10-28 06:06:00,SystemResetWarning,0831.2,5.00,000.00,022.8,021.4,000.0,031.1,024.3,12.7,0002.0,0006.54,0013.62,0005.88
2023-10-28 06:07:00,SystemResetWarning,0831.2,5.00,000.00,022.8,021.4,000.0,031.1,024.4,12.8,0001.3,0006.53,0013.44,0005.87
2023-10-28 06:08:00,SystemResetWarning,0831.1,5.00,000.00,022.8,021.4,000.0,031.1,024.4,12.7,0000.9,0006.49,0012.89,0005.85
2023-10-28 06:09:00,SystemResetWarning,0831.1,5.00,000.00,022.8,021.4,000.0,031.1,024.4,12.7,0000.7,0006.50,0012.87,0005.84
2023-10-28 06:10:00,SystemResetWarning,0831.1,5.00,000.00,022.8,021.4,000.0,031.1,024.4,12.6,0000.9,0006.46,0012.84,0005.84
2023-10-28 06:11:00,SystemResetWarning,0831.1,5.00,000.00,022.8,021.4,000.0,031.1,024.4,12.6,0001.1,0006.49,0012.83,0005.82
2023-10-28 06:12:00,SystemResetWarning,0831.2,5.00,000.00,022.8,021.4,000.0,031.1,024.4,12.5,0001.5,0006.48,0012.41,0005.81
2023-10-28 06:13:00,SystemResetWarning,0831.2,5.00,000.00,022.8,021.4,000.0,031.1,024.4,12.5,0001.3,0006.45,0012.25,0005.79
2023-10-28 06:14:00,SystemResetWarning,0831.2,5.00,000.00,022.8,021.4,000.0,031.1,024.4,12.5,0001.2,0006.49,0012.24,0005.77
2023-10-28 06:15:00,SystemResetWarning,0831.1,5.00,000.00,022.8,021.4,000.0,031.1,024.4,12.4,0000.5,0006.48,0011.56,0005.75
2023-10-28 06:16:00,SystemResetWarning,0831.1,4.99,000.00,022.8,021.4,000.0,031.1,024.4,12.4,0000.6,0006.50,0011.35,0005.75
2023-10-28 06:17:00,SystemResetWarning,0831.1,4.99,000.00,022.8,021.4,000.0,031.1,024.4,12.4,0000.3,0006.50,0011.86,0005.73
2023-10-28 06:18:00,SystemResetWarning,0831.1,4.99,000.00,022.8,021.4,000.0,031.1,024.4,12.4,0000.3,0006.49,0011.86,0005.71
2023-10-28 06:19:00,SystemResetWarning,0831.1,5.00,000.00,022.8,021.4,000.0,031.1,024.3,12.3,0000.9,0006.50,0011.73,0005.69
2023-10-28 06:20:00,SystemResetWarning,0831.1,5.00,000.00,022.8,021.4,000.0,031.1,024.4,12.3,0000.9,0006.42,0011.56,0005.63
2023-10-28 06:21:00,SystemResetWarning,0831.1,5.01,000.00,022.8,021.4,000.0,031.1,024.4,12.3,0001.1,0006.38,0011.65,0005.59
2023-10-28 06:22:00,SystemResetWarning,0830.9,5.01,000.00,022.8,021.4,000.0,031.1,024.3,12.3,0000.7,0006.30,0011.10,0005.54
2023-10-28 06:23:00,SystemResetWarning,0830.9,5.00,000.00,022.8,021.4,000.0,031.1,024.4,12.3,0000.2,0006.23,0010.79,0005.47
2023-10-28 06:24:00,SystemResetWarning,0830.9,5.00,000.00,022.8,021.4,000.0,031.1,024.4,12.2,0000.2,0006.17,0010.91,0005.41
2023-10-28 06:25:00,SystemResetWarning,0830.9,5.00,000.00,022.8,021.4,000.0,031.1,024.4,12.1,0000.5,0006.11,0011.00,0005.35
2023-10-28 06:26:00,SystemResetWarning,0830.9,5.00,000.00,022.8,021.3,000.0,031.1,024.3,12.1,0001.4,0006.04,0010.99,0005.28
2023-10-28 06:27:00,SystemResetWarning,0830.9,5.00,000.00,022.8,021.3,000.0,031.1,024.4,12.0,0002.4,0005.97,0011.03,0005.21
2023-10-28 06:28:00,SystemResetWarning,0830.8,5.00,000.00,022.8,021.3,000.0,031.1,024.4,11.9,0001.7,0005.93,0011.41,0005.14
2023-10-28 06:29:00,SystemResetWarning,0830.8,5.00,000.00,022.8,021.3,000.0,031.1,024.4,11.8,0001.5,0005.92,0011.35,0005.09
2023-10-28 06:30:00,SystemResetWarning,0830.7,5.00,000.00,022.8,021.3,000.0,031.1,024.4,11.8,0001.8,0005.89,0011.59,0005.06
2023-10-28 06:31:00,SystemResetWarning,0830.7,4.99,000.00,022.8,021.3,000.0,031.1,024.4,11.7,0002.2,0005.89,0012.73,0005.05
2023-10-28 06:32:00,SystemResetWarning,0830.7,5.00,000.00,022.8,021.3,000.0,031.1,024.3,11.7,0001.6,0005.86,0013.28,0005.03
2023-10-28 06:33:00,SystemResetWarning,0830.7,5.00,000.00,022.8,021.3,000.0,031.1,024.3,11.6,0001.3,0005.84,0013.17,0005.01
2023-10-28 06:34:00,SystemResetWarning,0830.7,5.00,000.00,022.8,021.3,000.0,031.1,024.3,11.6,0002.6,0005.82,0013.63,0005.02
2023-10-28 06:35:00,SystemResetWarning,0830.7,5.01,000.00,022.8,021.3,000.0,031.1,024.3,11.6,0002.9,0005.82,0013.69,0005.01
2023-10-28 06:36:00,SystemResetWarning,0830.6,5.00,000.00,022.8,021.3,000.0,031.1,024.3,11.5,0003.0,0005.79,0013.24,0005.01
2023-10-28 06:37:00,SystemResetWarning,0830.6,5.00,000.00,022.7,021.2,000.0,031.1,024.3,11.4,0002.9,0005.74,0013.42,0005.01
2023-10-28 06:38:00,SystemResetWarning,0830.6,5.00,000.00,022.7,021.2,000.0,031.1,024.3,11.4,0001.7,0005.74,0013.48,0005.03
2023-10-28 06:39:00,SystemResetWarning,0830.6,5.00,000.00,022.7,021.2,000.0,031.1,024.3,11.4,0001.1,0005.74,0013.09,0005.04
2023-10-28 06:40:00,SystemResetWarning,0830.5,4.99,000.00,022.7,021.2,000.0,031.1,024.2,11.5,0000.9,0005.71,0012.92,0005.04
2023-10-28 06:41:00,SystemResetWarning,0830.5,5.00,000.00,022.7,021.2,000.0,031.1,024.2,11.5,0000.8,0005.69,0012.77,0005.04
2023-10-28 06:42:00,SystemResetWarning,0830.5,5.00,000.00,022.7,021.2,000.0,031.1,024.2,11.5,0000.0,0005.69,0012.13,0005.03
2023-10-28 06:43:00,SystemResetWarning,0830.6,5.00,000.00,022.7,021.2,000.0,031.1,024.2,11.6,0000.0,0005.76,0011.40,0005.03
2023-10-28 06:44:00,SystemResetWarning,0830.5,5.00,000.00,022.7,021.1,000.0,031.0,024.2,11.6,0000.0,0005.79,0011.84,0005.02
2023-10-28 06:45:00,SystemResetWarning,0830.4,5.00,000.00,022.7,021.1,000.0,031.0,024.2,11.6,0000.0,0005.82,0013.12,0005.00
2023-10-28 06:46:00,SystemResetWarning,0830.5,5.00,000.00,022.6,021.1,000.0,031.0,024.2,11.6,0000.0,0005.82,0012.81,0005.00
2023-10-28 06:47:00,SystemResetWarning,0830.4,5.00,000.00,022.6,021.1,000.0,031.0,024.2,11.6,0000.0,0005.85,0013.13,0005.00
2023-10-28 06:48:00,SystemResetWarning,0830.6,5.00,000.00,022.6,021.1,000.0,031.0,024.2,11.6,0000.0,0005.86,0013.06,0005.00
2023-10-28 06:49:00,SystemResetWarning,0830.7,5.00,000.00,022.6,021.1,000.0,031.0,024.2,11.6,0000.0,0005.85,0013.26,0004.99
2023-10-28 06:50:00,SystemResetWarning,0830.8,4.99,000.00,022.6,021.1,000.0,031.0,024.2,11.5,0000.0,0005.84,0013.40,0004.98
2023-10-28 06:51:00,SystemResetWarning,0830.6,5.00,000.00,022.6,021.1,000.0,031.0,024.2,11.5,0000.0,0005.89,0013.39,0004.98
2023-10-28 06:52:00,SystemResetWarning,0830.7,4.99,000.00,022.6,021.1,000.0,031.0,024.2,11.4,0000.0,0005.86,0013.15,0004.98
2023-10-28 06:53:00,SystemResetWarning,0830.7,4.99,000.00,022.6,021.1,000.0,031.0,024.2,11.4,0000.0,0005.89,0013.14,0004.98
2023-10-28 06:54:00,SystemResetWarning,0830.6,5.00,000.00,022.6,021.1,000.0,031.0,024.2,11.4,0000.0,0005.83,0012.91,0004.97
2023-10-28 06:55:00,SystemResetWarning,0830.5,5.00,000.00,022.6,021.1,000.0,031.0,024.2,11.5,0000.0,0005.79,0012.50,0004.97
2023-10-28 06:56:00,SystemResetWarning,0830.4,5.01,000.00,022.6,021.1,000.0,031.0,024.2,11.5,0000.0,0005.77,0010.98,0004.96
2023-10-28 06:57:00,SystemResetWarning,0830.4,5.01,000.00,022.6,021.1,000.0,031.0,024.2,11.5,0000.0,0005.78,0011.10,0004.94
2023-10-28 06:58:00,SystemResetWarning,0830.3,5.01,000.00,022.6,021.1,000.0,030.9,024.2,11.6,0000.0,0005.76,0010.98,0004.93
2023-10-28 06:59:00,SystemResetWarning,0830.2,5.00,000.00,022.6,021.1,000.0,030.9,024.2,11.6,0000.0,0005.75,0010.85,0004.91
